sat.trackr.live / text

‹ back to catalog

STARLINK-32630

NORAD 62047 · 2024-216R

PAYLOAD ACTIVE UNKNOWN

§ Identity

Operator
Country
US
Launch date
2024-11-21
Launch site
AFETR
Launch vehicle
Mass (kg)
RCS (m²)

Purposes: comms

External: N2YO · Heavens-Above · Gunter

§ Orbital elements

Epoch: 2026-05-25T03:18:33.251904Z

Period
94.27 min
Inclination
42.9984°
Eccentricity
0.0001621
Mean motion
15.27587852 rev/d
Perigee alt
481.9 km
Apogee alt
484.1 km
Semi-major
6,861.2 km
B*
5.4774e-4
RAAN
191.8254°
Arg perigee
277.9796°
Mean anomaly
82.0872°
Rev number
8,548

§ Raw data

STARLINK-326301 62047U 24216R   26145.13788486  .00014845  00000+0  54774-3 0  99982 62047  42.9984 191.8254 0001621 277.9796  82.0872 15.27587852 85486

JSON: /api/v1/satellites/62047 · /tle

For live sub-satellite position, see the globe view (requires WebGL).

§ Visibility from observer

Set your observer location to see the next 7 days of passes ≥ 10°. The values pass through the URL so the page stays shareable.

No JS? Fill the form by hand. The geolocation button needs JavaScript.